Погода в Баскатовке

Россия / Саратовская область     51°47′57″N   46°58′59″E
темп.,
°C
ветер,
м/с
пор.,
м/с
влажн.,
%
обл.,
%
осадки,
мм/ч
давл.,
гПа
погр.,
м
11 апреля, вс
вс1101:00+7с2294100 0.0 102037
04:00+7с2293100 0.0 102126
07:00+7ссв3392100 0.0 102257
10:00+11св4583100 0.0 1024224
13:00+16всв3564100 0.0 1024510
16:00+19св3449100 0.0 1025525
19:00+14св4774100 0.0 1025131
22:00+12св478476 0.0 1026106
12 апреля, пн
пн1201:00+11всв348689 0.0 102753
04:00+10всв338163 0.0 102834
07:00+9всв457953 0.0 102967
10:00+16в455292 0.0 1030320
13:00+20вюв4640100 0.0 1030872
16:00+22вюв563459 0.0 10301733
19:00+18вюв485279 0.0 1030143
22:00+13вюв4106569 0.0 1031164
13 апреля, вт
вт1301:00+11вюв466311 0.0 103268
04:00+9в466540 0.0 103278
07:00+8в48725 0.0 1032128
10:00+14в574770 0.0 1033429
13:00+18вюв573433 0.0 10311056
16:00+20вюв56302 0.0 10301401
19:00+16в484738 0.0 1029122
22:00+12вюв49575 0.0 1030137
14 апреля, ср
ср1401:00+9в476160 0.0 102990
04:00+7всв466763 0.0 102970
07:00+7всв487113 0.0 1028134
10:00+13в68482 0.0 1027456
13:00+18вюв67342 0.0 10261145
16:00+19вюв57315 0.0 10241474
19:00+16вюв46470 0.0 1023102
22:00+12в34615 0.0 102355
15 апреля, чт
чт1501:00+10в34750 0.0 102246
04:00+9всв33870 0.0 102238
07:00+9всв36920 0.0 1021100
10:00+15в45660 0.0 1020459
13:00+19вюв33420 0.0 10191256
16:00+20юв22340 0.0 10171556
19:00+18всв22442 0.0 101614
22:00+14всв335217 0.0 101623